Regional Weather Roundup
Issued by NWS Charleston, SC

Home | Current Version | Previous Version | Text Only | Print | Product List | Glossary On
Versions: 1 2 3 4 5 6 7 8 9 10 11 12 13 14 15 16 17 18 19 20 21 22 23 24 25 26 27 28 29 30 31 32 33 34 35 36 37 38 39 40 41 42 43 44 45 46 47 48 49 50
000
ASUS42 KCHS 280827
RWRCHS

REGIONAL WEATHER ROUNDUP
NATIONAL WEATHER SERVICE CHARLESTON SC
400 AM EDT FRI APR 28 2017

NOTE: "FAIR" INDICATES FEW OR NO CLOUDS BELOW 12,000 FEET WITH NO
SIGNIFICANT WEATHER AND/OR OBSTRUCTIONS TO VISIBILITY.

NOT ALL STATIONS ARE QUALITY CONTROLLED. USE DATA WITH CAUTION...
ESPECIALLY DEWPOINT OBSERVATIONS.

SCZ027-030-031-034>040-042>050-280900-
...SOUTHEAST SOUTH CAROLINA...

CITY           SKY/WX    TMP DP  RH WIND       PRES   REMARKS
N CHARLESTON   MOCLDY    75  71  87 S13       29.97S
WATERFRONT PRK   N/A     75  74  97 S8        29.96R
JOHNS ISLAND   CLOUDY    75  73  94 S12G17    29.98F FOG
PINOPOLIS        N/A     75  72  88 VRB3      29.90R
MONCKS CORNER  FAIR      72  70  94 S6        29.97S
SUMMERVILLE    FAIR      72  72 100 CALM      29.98R
BEAUFORT MCAS  CLOUDY    74  74 100 SW3       29.97S
BEAUFORT ARPT  FAIR      72  72 100 CALM      29.98R FOG
HILTON HEAD IS MOCLDY    75  75 100 VRB3      29.98S FOG
WALTERBORO     CLOUDY    70  68  94 SE5       29.98R
ALLENDALE      FAIR      70  66  88 CALM      29.95S

...SOUTHERN MIDLANDS AND PEE DEE...

CITY           SKY/WX    TMP DP  RH WIND       PRES   REMARKS
GEORGETOWN     PTSUNNY   73  73 100 S8        30.01R
KINGSTREE      FAIR      72  68  88 S3        29.96S
ORANGEBURG     CLEAR     69  66  90 CALM      29.96R
BARNWELL       FAIR      72  66  83 CALM      29.96R
AIKEN          FAIR      64  63  94 SE6       29.99R
MANNING        FAIR      72  70  94 SW14G20   29.97R
COLUMBIA       PTCLDY    70  63  78 S3        29.94R
SUMTER         MOCLDY    72  66  80 S7        29.93S
FLORENCE       CLOUDY    73  70  90 S8        29.96R
MYRTLE BEACH   CLOUDY    74  72  93 SW10      30.00R
N MYRTLE BEACH CLOUDY    73  72  96 SW10      29.99R

$$

GAZ063-065-086>088-099>101-113>116-118-119-134>141-150-280900-
...SOUTHEAST GEORGIA...

CITY           SKY/WX    TMP DP  RH WIND       PRES   REMARKS
SAVANNAH ARPT  PTCLDY    71  68  90 S5        29.97S
HUNTER AAF     PTCLDY    70  70 100 CALM      29.95R
FORT STEWART   CLEAR     68  66  93 S3        29.94S
STATESBORO     CLEAR     67  66  97 CALM      29.96R
SYLVANIA       SUNNY    N/A N/A N/A CALM      29.97R
CLAXTON        FAIR     N/A N/A N/A CALM      29.96S

...CSRA...CENTRAL AND FAR SOUTHEAST GEORGIA...

CITY           SKY/WX    TMP DP  RH WIND       PRES   REMARKS
THOMSON        MOCLDY    67  65  96 CALM      29.99R
AUGUSTA-BUSH   CLEAR     67  65  93 S5        29.93S FOG
AUGUSTA-DANIEL CLEAR     70  64  81 SE7       29.95R
SWAINSBORO     FAIR      68  68 100 CALM      29.96S
VIDALIA        CLEAR     70  66  88 CALM      29.96R
EASTMAN        FOG       69  69 100 CALM      29.96S VSB 1/4
HAZLEHURST     FAIR      71  71 100 CALM      29.94S
ALMA           CLEAR     67  66  97 S5        29.95S
WAYCROSS       CLEAR     68  68 100 S3        29.97R
JESUP          FAIR      64  61  88 CALM      29.97R FOG
BAXLEY         FAIR      68  68 100 S3        29.95S
BRUNSWICK      FOG       68  68 100 CALM      29.98R VSB<1/4
SAINT SIMONS   CLEAR     73  67  81 SW3       29.96S

$$

SCZ027-028-034-036>038-045-046-048>050-GAZ119-141-280900-
...LAKE AND SUPPLEMENTAL COASTAL OBSERVATIONS...

STATION/POSITION TIME  TEMP    WIND        PRES    WAVE   SWELL
                       AIR SEA DIR/SP/G            HT/PER HT/PER/DIR
                 (UTC) (F)     (DEG/KT/KT) (MB)    (FT/S) (FT/S/D)
WINYAH BAY       0745   74     200/  7     1015.0S
LAKE MURRAY      0730   71     170/  5/  6 1013.2R
ACE BASIN NERRS  0745   74        CALM     1015.0S
FORT PULASKI     0800   74 75  190/  2/  2 1015.1
SAPELO ISLAND    0745   72        CALM     1015.0R

$$

ANZ835-935-AMZ111-154-330-350-352-354-370-450-454-472-280900-
...C-MAN AND BUOY OBSERVATIONS...

STATION/POSITION TIME  TEMP    WIND        PRES    WAVE   SWELL
                       AIR SEA DIR/SP/G            HT/PER HT/PER/DIR
                 (UTC) (F)     (DEG/KT/KT) (MB)    (FT/S) (FT/S/D)
BUOY 41004       0810   75 74  190/ 10/ 12 1015.8
BUOY 41008       0750   74 73  170/  8/ 10 1014.6R   3/ 9   3/100/ 9
FOLLY BEACH CMAN 0800   74     200/  9/ 12 1016.1R
CAPERS NEARSHORE 0808   73 73  230/  8/ 10 1015.6R
FRIPP NEARSHORE  0808   74 73  210/ 10/ 14 1015.0R


STATION/POSITION TIME  TEMP    WIND        PRES    WAVE   SWELL
                       AIR SEA DIR/SP/G            HT/PER HT/PER/DIR
                 (UTC) (F)     (DEG/KT/KT) (MB)    (FT/S) (FT/S/D)
5E ST. MARYS GA  0800      74                N/A     3/ 5
FRYING PAN BUOY  0810   75 72  200/ 12/ 14 1016.1
BUOY 41025       0750   77 77  190/ 19/ 21 1015.4F   5/ 8   3/130/ 8
CAPE LOOKOUT NC  0800   73     190/ 13/ 15 1015.2R
BUOY 41002       0750   74 75  150/ 17/ 19 1018.0F   4/ 8   2/ 20/11
BUOY 41010       0810   77 78  150/ 16/ 19 1016.0
ST AUGUSTINE FL  0800   75 76  210/  4/  5 1015.6R


$$




USA.gov is the U.S. government's official web portal to all federal, state and local government web resources and services.